Flag for Australia Weather past 2 weeks in Canberra, Australian Capital Territory, Australia

Now
45 °F

Passing clouds.


Feels Like: 40 °F
Forecast: 26 / 53 °F
Wind: 8 mph from South

Location: Canberra Airport

Current Time: Jun 2, 2015 at 5:36:51 PM

Latest Report: Jun 2, 2015 at 5:00 PM


Visibility: N/A

Pressure: 30.21 "Hg

Humidity: 57%

Dew point: 30 °F

Location of CanberraLocation

Historic Weather in Canberra — Graph

°F

Canberra temperature yesterday

Maximum temperature yesterday: 50 °F (at 1:00 PM)
Minimum temperature yesterday: 25 °F (at 11:00 PM)
Average temperature yesterday: 42 °F

Past Weeks' High & Low Weather Summary

 TemperatureHumidityPressure
High64 °F (May 20, 1:30 PM)100% (May 19, 7:00 AM)30.51 "Hg (May 19, 7:00 AM)
Low19 °F (Jun 2, 7:00 AM)29% (Jun 1, 3:30 PM)29.86 "Hg (Jun 1, 1:00 AM)
Average45 °F78%30.19 "Hg
* Reported May 18 4:00 PM — Jun 2 4:00 PM, Canberra, Weather by CustomWeather, © 2015

Note: Actual official high and low records may vary slightly from our data, if they occured in-between our weather recording intervals... More about our weather records

Advertising

Canberra weather history for previous 24 hours

 ConditionsComfort  
Time TempWeatherWind HumidityBarometerVisibility
4:00 PM
Tue, Jun 2
50 °FPassing clouds.9 mph50%30.18 "HgN/A
3:30 PM52 °FPassing clouds.8 mph44%30.18 "HgN/A
3:00 PM52 °FPassing clouds.8 mph44%30.18 "HgN/A
2:30 PM52 °FPassing clouds.6 mph47%30.18 "HgN/A
1:00 PM52 °FPassing clouds.9 mph47%30.21 "HgN/A
12:30 PM50 °FPassing clouds.13 mph47%30.21 "HgN/A
12:00 PM50 °FPassing clouds.18 mph47%30.24 "HgN/A
11:30 AM50 °FPassing clouds.13 mph50%30.24 "HgN/A
11:00 AM46 °FSunny.7 mph57%30.27 "Hg10 mi
10:30 AM43 °FSunny.3 mph66%30.27 "Hg10 mi
10:00 AM39 °FSunny.5 mph70%30.27 "Hg10 mi
9:30 AM36 °FSunny.3 mph75%30.27 "Hg10 mi
9:00 AM34 °FSunny.2 mph81%30.27 "Hg10 mi
8:00 AM25 °FSunny.2 mph93%30.24 "Hg10 mi
7:30 AM21 °FSunny.5 mph93%30.24 "Hg10 mi
7:00 AM19 °FSunny.3 mph93%30.24 "Hg10 mi
6:30 AM21 °FSunny.3 mph93%30.24 "Hg10 mi
6:00 AM21 °FPassing clouds.3 mph93%30.21 "HgN/A
5:30 AM21 °FPassing clouds.3 mph93%30.21 "HgN/A
5:00 AM23 °FPassing clouds.5 mph93%30.21 "HgN/A
4:00 AM23 °FClear.3 mph93%30.21 "HgN/A
3:00 AM23 °FClear.3 mph86%30.21 "HgN/A
2:00 AM23 °FClear.5 mph86%30.21 "HgN/A
1:30 AM23 °FClear.3 mph93%30.21 "HgN/A
1:00 AM25 °FClear.2 mph93%30.18 "HgN/A
12:30 AM23 °FClear.1 mph86%30.18 "HgN/A
12:00 AM25 °FClear.2 mph86%30.18 "HgN/A
11:00 PM
Mon, Jun 1
25 °FClear.3 mph86%30.18 "HgN/A
10:30 PM27 °FClear.6 mph86%30.18 "HgN/A
10:00 PM28 °FClear.6 mph74%30.18 "HgN/A
9:00 PM32 °FClear.5 mph75%30.18 "HgN/A
8:30 PM34 °FClear.5 mph70%30.15 "Hg10 mi
8:00 PM30 °FClear.2 mph75%30.15 "Hg10 mi
7:30 PM34 °FClear.3 mph65%30.15 "Hg10 mi
7:00 PM36 °FClear.3 mph60%30.12 "Hg10 mi
6:30 PM39 °FPassing clouds.9 mph52%30.12 "HgN/A
6:00 PM41 °FPassing clouds.9 mph49%30.12 "HgN/A
5:30 PM41 °FPassing clouds.9 mph49%30.09 "HgN/A
5:00 PM43 °FClear.7 mph42%30.09 "Hg10 mi
Weather by CustomWeather, © 2015

See weather overviewHow to use our weather pages